Location: Mascot Post Office (historical)
(40.2645°N, 99.5462°W)
Time: 15:42:44
(UTC+00:00)

Okean 2 - Pass Details

Date: 14 July 2020
Orbit: 559 x 578 km, 82.5° (Epoch: 04 August)

Event Time Altitude Azimuth Distance (km) Brightness Sun altitude
Rises 10:34:37 0° 344° (NNW) 2,757 7.2 -8.2°
Reaches altitude 10° 10:36:54 10° 336° (NNW) 1,855 6.2 -7.8°
Maximum altitude 10:40:41 38° 268° (W) 861 3.9 -7.3°
Drops below altitude 10° 10:44:27 10° 200° (SSW) 1,839 5.5 -6.7°
Sets 10:46:43 0° 192° (SSW) 2,730 6.4 -6.3°
